PRMJR SBLO-SBPF

Flight info

Callsign PRMJR
Flight time 0h 53m
Altitude 43000
Route UKDUN DCT GAVOM DCT NIRDA
Aircraft C700/M-SBDGHM1RWXY/LB2

Departure

Time 2026-04-30 02:44
Airport Governor José Richa Airport (SBLO)

Arrival

Time 2026-04-30 03:37
Airport Lauro Kurtz Airport (SBPF)
Time Latitude Longitude Altitude Speed Heading
2026-04-30 02:30 -23.32963 -51.13688 1873 ft 0 kts 20°
2026-04-30 02:37 -23.32971 -51.13691 1873 ft 2 kts 20°
2026-04-30 02:38 -23.32982 -51.13695 1873 ft 0 kts 20°
2026-04-30 02:40 -23.32981 -51.13696 1873 ft 0 kts
2026-04-30 02:40 -23.32979 -51.13698 1873 ft 0 kts 332°
2026-04-30 02:40 -23.32979 -51.13702 1873 ft 1 kts 280°
2026-04-30 02:40 -23.32982 -51.13705 1873 ft 1 kts 221°
2026-04-30 02:41 -23.32992 -51.13704 1873 ft 4 kts 184°
2026-04-30 02:41 -23.33009 -51.13752 1873 ft 13 kts 291°
2026-04-30 02:41 -23.32972 -51.13858 1873 ft 16 kts 290°
2026-04-30 02:41 -23.33003 -51.13948 1873 ft 16 kts 197°
2026-04-30 02:42 -23.33060 -51.13903 1873 ft 0 kts 110°
2026-04-30 02:44 -23.33175 -51.13554 1875 ft 98 kts 109°
2026-04-30 02:44 -23.33503 -51.12565 1999 ft 170 kts 111°
2026-04-30 02:44 -23.33933 -51.11282 3028 ft 194 kts 112°
2026-04-30 02:44 -23.34439 -51.09815 4134 ft 216 kts 110°
2026-04-30 02:45 -23.34965 -51.08241 5298 ft 236 kts 110°
2026-04-30 02:45 -23.35879 -51.06649 6294 ft 263 kts 134°
2026-04-30 02:45 -23.37356 -51.05326 7292 ft 286 kts 145°
2026-04-30 02:45 -23.38981 -51.04041 8715 ft 290 kts 145°
2026-04-30 02:46 -23.40629 -51.02721 10124 ft 298 kts 145°
2026-04-30 02:46 -23.42348 -51.01328 11126 ft 321 kts 145°
2026-04-30 02:46 -23.44191 -50.99836 12252 ft 334 kts 145°
2026-04-30 02:46 -23.46085 -50.98303 13632 ft 343 kts 146°
2026-04-30 02:47 -23.48014 -50.96745 14817 ft 350 kts 146°
2026-04-30 02:47 -23.49994 -50.95143 15987 ft 357 kts 146°
2026-04-30 02:47 -23.52014 -50.93509 17119 ft 365 kts 146°
2026-04-30 02:47 -23.54072 -50.91841 18254 ft 372 kts 146°
2026-04-30 02:48 -23.56151 -50.90156 19213 ft 379 kts 146°
2026-04-30 02:48 -23.58287 -50.88426 20181 ft 386 kts 147°
2026-04-30 02:48 -23.60462 -50.86663 21120 ft 393 kts 147°
2026-04-30 02:48 -23.62679 -50.84864 22076 ft 399 kts 147°
2026-04-30 02:49 -23.64926 -50.83041 23010 ft 406 kts 147°
2026-04-30 02:49 -23.67220 -50.81180 23867 ft 413 kts 147°
2026-04-30 02:49 -23.69549 -50.79288 24588 ft 419 kts 147°
2026-04-30 02:49 -23.71906 -50.77370 25359 ft 425 kts 147°
2026-04-30 02:50 -23.74300 -50.75426 26102 ft 431 kts 147°
2026-04-30 02:50 -23.76735 -50.73473 26809 ft 437 kts 150°
2026-04-30 02:50 -23.79394 -50.71886 27520 ft 436 kts 161°
2026-04-30 02:50 -23.82256 -50.70794 28193 ft 436 kts 171°
2026-04-30 02:51 -23.85236 -50.70234 28871 ft 435 kts 181°
2026-04-30 02:51 -23.88218 -50.70216 29537 ft 433 kts 191°
2026-04-30 02:51 -23.91191 -50.70736 30198 ft 431 kts 200°
2026-04-30 02:51 -23.94023 -50.71771 30789 ft 428 kts 210°
2026-04-30 02:52 -23.96650 -50.73286 31378 ft 425 kts 219°
2026-04-30 02:52 -23.99135 -50.75063 31969 ft 428 kts 220°
2026-04-30 02:52 -24.01617 -50.76819 32525 ft 432 kts 220°
2026-04-30 02:52 -24.04162 -50.78615 33064 ft 436 kts 220°
2026-04-30 02:53 -24.06708 -50.80425 33734 ft 435 kts 220°
2026-04-30 02:53 -24.09235 -50.82222 34505 ft 432 kts 221°
2026-04-30 02:53 -24.11743 -50.84006 35185 ft 429 kts 221°
2026-04-30 02:53 -24.14237 -50.85777 35922 ft 426 kts 221°
2026-04-30 02:54 -24.16712 -50.87539 36620 ft 423 kts 221°
2026-04-30 02:54 -24.19167 -50.89288 37287 ft 420 kts 222°
2026-04-30 02:54 -24.21612 -50.91029 37907 ft 417 kts 222°
2026-04-30 02:54 -24.24035 -50.92756 38496 ft 414 kts 222°
2026-04-30 02:55 -24.26445 -50.94474 39008 ft 412 kts 222°
2026-04-30 02:55 -24.28841 -50.96185 39418 ft 410 kts 222°
2026-04-30 02:55 -24.31227 -50.97886 39812 ft 408 kts 222°
2026-04-30 02:55 -24.33610 -50.99588 40174 ft 407 kts 222°
2026-04-30 02:56 -24.35976 -51.01279 40501 ft 406 kts 222°
2026-04-30 02:56 -24.38314 -51.02949 40796 ft 405 kts 222°
2026-04-30 02:56 -24.40671 -51.04633 41110 ft 404 kts 222°
2026-04-30 02:56 -24.43019 -51.06313 41405 ft 402 kts 223°
2026-04-30 02:57 -24.45357 -51.07986 41655 ft 401 kts 223°
2026-04-30 02:57 -24.47699 -51.09665 41895 ft 401 kts 223°
2026-04-30 02:57 -24.50028 -51.11330 42159 ft 400 kts 223°
2026-04-30 02:57 -24.52354 -51.12997 42373 ft 399 kts 223°
2026-04-30 02:58 -24.54680 -51.14666 42619 ft 398 kts 223°
2026-04-30 02:58 -24.56990 -51.16321 42858 ft 396 kts 223°
2026-04-30 02:58 -24.59297 -51.17975 43056 ft 395 kts 223°
2026-04-30 02:59 -24.63938 -51.21316 43105 ft 402 kts 223°
2026-04-30 02:59 -24.68669 -51.24710 43122 ft 409 kts 222°
2026-04-30 03:00 -24.73461 -51.28158 43122 ft 414 kts 223°
2026-04-30 03:00 -24.78309 -51.31648 43122 ft 420 kts 222°
2026-04-30 03:01 -24.83223 -51.35191 43119 ft 425 kts 223°
2026-04-30 03:01 -24.88147 -51.38737 43126 ft 423 kts 223°
2026-04-30 03:02 -24.93056 -51.42282 43118 ft 419 kts 223°
2026-04-30 03:02 -24.97932 -51.45810 43121 ft 420 kts 223°
2026-04-30 03:03 -25.02842 -51.49361 43125 ft 424 kts 223°
2026-04-30 03:03 -25.10216 -51.54699 43116 ft 419 kts 223°
2026-04-30 03:04 -25.15099 -51.58179 43119 ft 421 kts 219°
2026-04-30 03:04 -25.20608 -51.60777 43124 ft 441 kts 208°
2026-04-30 03:05 -25.26466 -51.62870 43124 ft 442 kts 209°
2026-04-30 03:05 -25.32261 -51.64955 43122 ft 439 kts 209°
2026-04-30 03:06 -25.38043 -51.67032 43121 ft 437 kts 209°
2026-04-30 03:06 -25.43851 -51.69128 43116 ft 440 kts 209°
2026-04-30 03:07 -25.49701 -51.71233 43121 ft 443 kts 209°
2026-04-30 03:07 -25.55556 -51.73343 43120 ft 441 kts 209°
2026-04-30 03:08 -25.61389 -51.75451 43115 ft 439 kts 209°
2026-04-30 03:08 -25.67212 -51.77557 43119 ft 441 kts 209°
2026-04-30 03:09 -25.73021 -51.79659 43117 ft 443 kts 209°
2026-04-30 03:09 -25.78903 -51.81790 43114 ft 445 kts 209°
2026-04-30 03:10 -25.84801 -51.83928 43111 ft 447 kts 209°
2026-04-30 03:10 -25.90713 -51.86074 43117 ft 447 kts 209°
2026-04-30 03:11 -25.96624 -51.88221 43114 ft 447 kts 209°
2026-04-30 03:11 -26.02526 -51.90367 43094 ft 445 kts 209°
2026-04-30 03:12 -26.08421 -51.92520 43112 ft 448 kts 209°
2026-04-30 03:12 -26.14370 -51.94685 43109 ft 451 kts 209°
2026-04-30 03:13 -26.20316 -51.96854 43115 ft 452 kts 209°
2026-04-30 03:13 -26.26265 -51.99024 43113 ft 448 kts 209°
2026-04-30 03:14 -26.32197 -52.01197 43115 ft 448 kts 209°
2026-04-30 03:14 -26.38141 -52.03373 43110 ft 451 kts 209°
2026-04-30 03:15 -26.44138 -52.05576 42610 ft 456 kts 209°
2026-04-30 03:15 -26.46127 -52.06303 42214 ft 454 kts 209°
2026-04-30 03:15 -26.49118 -52.07392 41620 ft 449 kts 209°
2026-04-30 03:16 -26.52073 -52.08474 41034 ft 443 kts 209°
2026-04-30 03:16 -26.54985 -52.09548 40452 ft 439 kts 210°
2026-04-30 03:16 -26.57871 -52.10614 39879 ft 436 kts 210°
2026-04-30 03:16 -26.60761 -52.11677 39303 ft 437 kts 209°
2026-04-30 03:17 -26.63657 -52.12744 38722 ft 442 kts 209°
2026-04-30 03:17 -26.66594 -52.13830 38091 ft 447 kts 208°
2026-04-30 03:17 -26.69560 -52.14920 37499 ft 450 kts 208°
2026-04-30 03:17 -26.72548 -52.16018 36907 ft 453 kts 208°
2026-04-30 03:18 -26.75544 -52.17121 36308 ft 453 kts 207°
2026-04-30 03:18 -26.78536 -52.18225 35713 ft 452 kts 207°
2026-04-30 03:18 -26.81489 -52.19314 35113 ft 452 kts 206°
2026-04-30 03:18 -26.84468 -52.20415 34518 ft 451 kts 206°
2026-04-30 03:19 -26.87446 -52.21516 33896 ft 451 kts 206°
2026-04-30 03:19 -26.90419 -52.22616 33288 ft 450 kts 206°
2026-04-30 03:19 -26.93395 -52.23717 32695 ft 454 kts 205°
2026-04-30 03:19 -26.96463 -52.24712 32082 ft 464 kts 200°
2026-04-30 03:20 -26.99625 -52.25509 31474 ft 468 kts 200°
2026-04-30 03:20 -27.02800 -52.26363 30852 ft 469 kts 200°
2026-04-30 03:20 -27.05972 -52.27227 30234 ft 470 kts 200°
2026-04-30 03:20 -27.09151 -52.28062 29573 ft 467 kts 200°
2026-04-30 03:21 -27.12294 -52.28877 28957 ft 459 kts 200°
2026-04-30 03:21 -27.15380 -52.29696 28354 ft 451 kts 200°
2026-04-30 03:21 -27.18408 -52.30512 27758 ft 445 kts 200°
2026-04-30 03:21 -27.21409 -52.31313 27179 ft 441 kts 200°
2026-04-30 03:22 -27.24394 -52.32102 26590 ft 438 kts 200°
2026-04-30 03:22 -27.27350 -52.32883 26011 ft 435 kts 200°
2026-04-30 03:22 -27.30278 -52.33664 25445 ft 429 kts 200°
2026-04-30 03:22 -27.33170 -52.34435 24878 ft 424 kts 200°
2026-04-30 03:23 -27.36017 -52.35194 24322 ft 419 kts 200°
2026-04-30 03:23 -27.38798 -52.35934 23778 ft 414 kts 200°
2026-04-30 03:23 -27.41594 -52.36678 23190 ft 409 kts 200°
2026-04-30 03:23 -27.44342 -52.37412 22651 ft 404 kts 200°
2026-04-30 03:24 -27.47070 -52.38143 22117 ft 402 kts 200°
2026-04-30 03:24 -27.49782 -52.38869 21589 ft 399 kts 200°
2026-04-30 03:24 -27.52478 -52.39588 21063 ft 398 kts 200°
2026-04-30 03:24 -27.55166 -52.40305 20540 ft 396 kts 200°
2026-04-30 03:25 -27.57839 -52.41019 20017 ft 393 kts 200°
2026-04-30 03:25 -27.60484 -52.41729 19508 ft 389 kts 199°
2026-04-30 03:25 -27.63105 -52.42429 18995 ft 385 kts 199°
2026-04-30 03:25 -27.65703 -52.43124 18487 ft 382 kts 199°
2026-04-30 03:26 -27.68275 -52.43815 17951 ft 378 kts 199°
2026-04-30 03:26 -27.70819 -52.44497 17453 ft 374 kts 199°
2026-04-30 03:26 -27.73345 -52.45173 16959 ft 371 kts 199°
2026-04-30 03:26 -27.75817 -52.45838 16474 ft 369 kts 199°
2026-04-30 03:27 -27.78262 -52.46495 15999 ft 368 kts 199°
2026-04-30 03:27 -27.80771 -52.47170 15512 ft 366 kts 198°
2026-04-30 03:27 -27.83236 -52.47831 15034 ft 362 kts 198°
2026-04-30 03:27 -27.85674 -52.48484 14551 ft 359 kts 198°
2026-04-30 03:28 -27.88095 -52.49137 14078 ft 356 kts 198°
2026-04-30 03:28 -27.90492 -52.49783 13579 ft 351 kts 198°
2026-04-30 03:28 -27.92816 -52.50405 13121 ft 334 kts 197°
2026-04-30 03:28 -27.95026 -52.50998 12688 ft 319 kts 197°
2026-04-30 03:29 -27.97141 -52.51570 12282 ft 306 kts 197°
2026-04-30 03:29 -27.99174 -52.52121 11880 ft 295 kts 196°
2026-04-30 03:29 -28.01144 -52.52654 11493 ft 287 kts 196°
2026-04-30 03:29 -28.03070 -52.53171 11125 ft 283 kts 195°
2026-04-30 03:30 -28.04981 -52.53689 10756 ft 283 kts 195°
2026-04-30 03:30 -28.06899 -52.54210 10386 ft 284 kts 194°
2026-04-30 03:30 -28.08823 -52.54725 10007 ft 284 kts 194°
2026-04-30 03:30 -28.10741 -52.55249 9612 ft 282 kts 194°
2026-04-30 03:31 -28.12653 -52.55760 9233 ft 283 kts 193°
2026-04-30 03:31 -28.14568 -52.56270 8860 ft 282 kts 194°
2026-04-30 03:31 -28.16466 -52.56793 8502 ft 279 kts 194°
2026-04-30 03:31 -28.18337 -52.57301 8143 ft 273 kts 193°
2026-04-30 03:32 -28.20172 -52.57776 7802 ft 268 kts 190°
2026-04-30 03:32 -28.22020 -52.57834 7456 ft 265 kts 175°
2026-04-30 03:32 -28.23802 -52.57373 7125 ft 262 kts 161°
2026-04-30 03:32 -28.25436 -52.56432 6777 ft 266 kts 147°
2026-04-30 03:33 -28.26837 -52.55094 6400 ft 268 kts 139°
2026-04-30 03:33 -28.28111 -52.53552 6008 ft 267 kts 124°
2026-04-30 03:33 -28.28948 -52.51744 6012 ft 256 kts 112°
2026-04-30 03:33 -28.29381 -52.49757 6002 ft 263 kts 97°
2026-04-30 03:34 -28.29374 -52.47673 5998 ft 266 kts 83°
2026-04-30 03:34 -28.28893 -52.45617 5710 ft 267 kts 68°
2026-04-30 03:34 -28.28245 -52.43859 5439 ft 220 kts 68°
2026-04-30 03:34 -28.27725 -52.42323 5127 ft 197 kts 70°
2026-04-30 03:35 -28.27284 -52.41036 4751 ft 159 kts 69°
2026-04-30 03:35 -28.26900 -52.39938 4319 ft 142 kts 68°
2026-04-30 03:35 -28.26536 -52.38921 3898 ft 137 kts 68°
2026-04-30 03:35 -28.26196 -52.37928 3484 ft 132 kts 68°
2026-04-30 03:36 -28.25851 -52.36956 3062 ft 137 kts 69°
2026-04-30 03:36 -28.25510 -52.35989 2845 ft 127 kts 67°
2026-04-30 03:36 -28.25180 -52.35042 2623 ft 131 kts 69°
2026-04-30 03:36 -28.24854 -52.34087 2445 ft 129 kts 68°
2026-04-30 03:37 -28.24536 -52.33165 2370 ft 118 kts 68°
2026-04-30 03:37 -28.24284 -52.32450 2380 ft 72 kts 68°
2026-04-30 03:37 -28.24190 -52.32184 2387 ft 13 kts 68°
2026-04-30 03:37 -28.24167 -52.32121 2389 ft 2 kts 336°
2026-04-30 03:38 -28.24178 -52.32151 2388 ft 9 kts 246°
2026-04-30 03:38 -28.24215 -52.32254 2385 ft 17 kts 249°
2026-04-30 03:38 -28.24264 -52.32393 2381 ft 21 kts 248°
2026-04-30 03:38 -28.24320 -52.32553 2379 ft 19 kts 249°
2026-04-30 03:39 -28.24375 -52.32706 2376 ft 18 kts 248°
2026-04-30 03:39 -28.24410 -52.32809 2374 ft 16 kts 248°
2026-04-30 03:39 -28.24402 -52.32906 2371 ft 11 kts 336°
2026-04-30 03:39 -28.24354 -52.32930 2371 ft 9 kts 336°
2026-04-30 03:40 -28.24318 -52.32948 2371 ft 5 kts 336°
2026-04-30 03:40 -28.24311 -52.32951 2371 ft 0 kts 337°